Location: Unspecified
(52.4292°N, 19.3359°E)
Time: 10:46:04
(UTC+02:00)

deb Explorer IX - Pass Details

Date: 27 May 2024
Orbit: 510 x 886 km, 38.7° (Epoch: 13 June)

Event Time Altitude Azimuth Distance (km) Brightness Sun altitude
Rises 21:30:50 0° 235° (SW) 3,211 ? -5.4°
Reaches altitude 10° 21:34:14 10° 215° (SW) 2,202 ? -5.8°
Maximum altitude 21:37:19 16° 178° (S) 1,744 ? -6.1°
Drops below altitude 10° 21:40:14 10° 140° (SE) 2,046 ? -6.4°
Enters shadow 21:40:52 - 134° (SE) 2,194 ? -6.5°
